TimeEST,TemperatureF,Dew PointF,Humidity,Sea Level PressureIn,VisibilityMPH,Wind Direction,Wind SpeedMPH,Gust SpeedMPH,PrecipitationIn,Events,Conditions,WindDirDegrees,DateUTC
12:55 AM,32.0,21.2,64,30.11,10.0,SW,6.9,-,N/A,,Overcast,220,2013-01-17 05:55:00
1:55 AM,32.0,20.7,63,30.12,10.0,SW,8.1,-,N/A,,Overcast,220,2013-01-17 06:55:00
2:55 AM,30.4,20.5,67,30.13,10.0,SW,6.9,-,N/A,,Overcast,220,2013-01-17 07:55:00
3:13 AM,30.2,21.2,69,30.14,10.0,SW,5.8,-,N/A,,Mostly Cloudy,230,2013-01-17 08:13:00
3:55 AM,31.3,20.7,65,30.13,10.0,SW,4.6,-,N/A,,Overcast,230,2013-01-17 08:55:00
4:55 AM,30.2,21.2,69,30.15,10.0,SW,5.8,-,N/A,,Overcast,230,2013-01-17 09:55:00
5:55 AM,29.3,21.0,71,30.16,10.0,Calm,Calm,-,N/A,,Overcast,0,2013-01-17 10:55:00
6:55 AM,28.6,20.8,73,30.17,10.0,Calm,Calm,-,N/A,,Overcast,0,2013-01-17 11:55:00
7:55 AM,30.6,21.9,70,30.19,10.0,NW,4.6,-,N/A,,Overcast,310,2013-01-17 12:55:00
8:55 AM,31.3,22.6,70,30.22,10.0,NNW,3.5,-,N/A,,Overcast,330,2013-01-17 13:55:00
9:55 AM,32.4,23.4,69,30.24,10.0,Calm,Calm,-,N/A,,Overcast,0,2013-01-17 14:55:00
10:55 AM,33.8,24.1,68,30.24,10.0,NNW,4.6,-,N/A,,Mostly Cloudy,340,2013-01-17 15:55:00
11:55 AM,35.2,24.4,65,30.22,10.0,NW,6.9,-,N/A,,Mostly Cloudy,320,2013-01-17 16:55:00
12:55 PM,38.7,25.2,58,30.17,10.0,WNW,9.2,-,N/A,,Mostly Cloudy,300,2013-01-17 17:55:00
1:55 PM,41.5,23.9,50,30.14,10.0,NNW,10.4,-,N/A,,Partly Cloudy,330,2013-01-17 18:55:00
2:19 PM,41.0,23.0,49,30.14,10.0,NW,12.7,-,N/A,,Scattered Clouds,310,2013-01-17 19:19:00
2:55 PM,41.4,23.2,48,30.15,10.0,NW,11.5,20.7,N/A,,Partly Cloudy,320,2013-01-17 19:55:00
3:55 PM,40.3,21.9,48,30.16,10.0,NW,13.8,20.7,N/A,,Clear,310,2013-01-17 20:55:00
4:55 PM,38.3,23.0,54,30.17,10.0,WNW,15.0,-,N/A,,Partly Cloudy,300,2013-01-17 21:55:00
5:55 PM,35.8,23.0,60,30.24,10.0,Calm,Calm,-,N/A,,Partly Cloudy,0,2013-01-17 22:55:00
6:55 PM,34.5,20.5,57,30.27,10.0,WNW,9.2,-,N/A,,Clear,290,2013-01-17 23:55:00
7:55 PM,32.7,19.6,58,30.30,10.0,WNW,10.4,-,N/A,,Clear,300,2013-01-18 00:55:00
8:55 PM,30.9,18.3,60,30.32,10.0,NW,11.5,-,N/A,,Clear,310,2013-01-18 01:55:00
9:55 PM,29.1,17.4,62,30.35,10.0,NW,13.8,-,N/A,,Partly Cloudy,310,2013-01-18 02:55:00
10:55 PM,27.1,15.1,60,30.37,10.0,NW,12.7,-,N/A,,Mostly Cloudy,320,2013-01-18 03:55:00
11:20 PM,26.6,14.0,59,30.38,10.0,NW,13.8,19.6,N/A,,Scattered Clouds,320,2013-01-18 04:20:00
11:55 PM,24.8,13.1,61,30.41,10.0,NW,11.5,-,N/A,,Partly Cloudy,320,2013-01-18 04:55:00